Photometre #795[NE_1.6] Beijing-CAMS AOT

File : 20200925_795.hum

25/09/2020,00:08:12,TEMP=21.5,BA=5.28,STAT.A=16.0,ExtBa=12.00
25/09/2020,00:10:39,TEMP=21.5,BA=5.40,STAT.A=16.0,ExtBa=12.01
25/09/2020,00:15:21,TEMP=21.3,BA=5.40,STAT.D=16.5,ExtBa=12.03
25/09/2020,00:18:21,TEMP=21.3,BA=5.40,STAT.D=16.5,ExtBa=12.02
25/09/2020,00:21:21,TEMP=21.3,BA=5.40,STAT.D=16.5,ExtBa=12.02
25/09/2020,00:23:21,TEMP=21.6,BA=5.40,STAT.A=16.0,ExtBa=12.01
25/09/2020,00:27:21,TEMP=21.5,BA=5.40,STAT.D=16.5,ExtBa=12.03
25/09/2020,00:30:21,TEMP=21.6,BA=5.48,STAT.D=16.5,ExtBa=12.02
25/09/2020,00:33:21,TEMP=21.7,BA=5.48,STAT.D=16.5,ExtBa=12.02
25/09/2020,00:35:56,TEMP=21.9,BA=5.48,STAT.A=16.5,ExtBa=12.02
25/09/2020,00:39:21,TEMP=21.9,BA=5.48,STAT.D=16.5,ExtBa=12.02
25/09/2020,00:42:21,TEMP=22.2,BA=5.28,STAT.D=16.5,ExtBa=12.02
25/09/2020,00:45:21,TEMP=22.6,BA=5.28,STAT.D=16.5,ExtBa=12.02
25/09/2020,00:48:21,TEMP=23.0,BA=5.28,STAT.D=16.5,ExtBa=12.02
25/09/2020,00:51:21,TEMP=23.4,BA=5.40,STAT.D=16.5,ExtBa=12.02
25/09/2020,00:53:32,TEMP=23.8,BA=5.40,STAT.B=16.0,ExtBa=12.01
25/09/2020,01:03:21,TEMP=24.0,BA=5.24,STAT.D=16.5,ExtBa=11.99
25/09/2020,01:06:21,TEMP=24.3,BA=5.24,STAT.D=16.5,ExtBa=12.00
25/09/2020,01:08:19,TEMP=24.7,BA=5.24,STAT.F,ExtBa=11.98
25/09/2020,01:23:09,TEMP=25.0,BA=5.28,STAT.D=16.5,ExtBa=12.00
25/09/2020,01:27:21,TEMP=25.2,BA=5.28,STAT.D=16.5,ExtBa=11.99
25/09/2020,01:30:21,TEMP=25.6,BA=5.44,STAT.D=16.5,ExtBa=11.99
25/09/2020,01:33:21,TEMP=25.6,BA=5.44,STAT.D=16.5,ExtBa=11.99
25/09/2020,01:36:21,TEMP=25.7,BA=5.44,STAT.D=16.5,ExtBa=11.99
25/09/2020,01:38:15,TEMP=26.1,BA=5.44,STAT.D=16.5,ExtBa=11.98
25/09/2020,01:42:21,TEMP=26.2,BA=5.36,STAT.D=16.5,ExtBa=12.00
25/09/2020,01:45:21,TEMP=26.6,BA=5.36,STAT.D=16.5,ExtBa=12.00
25/09/2020,01:48:22,TEMP=26.9,BA=5.36,STAT.D=16.5,ExtBa=12.00
25/09/2020,01:51:21,TEMP=27.2,BA=5.36,STAT.D=16.5,ExtBa=12.00
25/09/2020,01:53:26,TEMP=27.5,BA=5.36,STAT.D=16.5,ExtBa=11.99
25/09/2020,01:57:21,TEMP=27.6,BA=5.36,STAT.D=16.5,ExtBa=12.00
25/09/2020,02:00:22,TEMP=27.9,BA=5.44,STAT.D=16.5,ExtBa=11.99
25/09/2020,02:03:22,TEMP=28.0,BA=5.44,STAT.D=16.5,ExtBa=12.00
25/09/2020,02:06:22,TEMP=28.1,BA=5.44,STAT.D=16.5,ExtBa=12.00
25/09/2020,02:08:16,TEMP=28.4,BA=5.44,STAT.F,ExtBa=11.98
25/09/2020,02:23:11,TEMP=28.1,BA=5.20,STAT.D=17.5,ExtBa=10.05
25/09/2020,02:27:22,TEMP=28.0,BA=5.20,STAT.D=17.5,ExtBa=10.07
25/09/2020,02:30:22,TEMP=28.3,BA=5.44,STAT.D=17.5,ExtBa=10.08
25/09/2020,02:33:22,TEMP=28.6,BA=5.44,STAT.D=17.5,ExtBa=10.08
25/09/2020,02:36:22,TEMP=28.9,BA=5.44,STAT.D=17.5,ExtBa=10.09
25/09/2020,02:38:16,TEMP=29.3,BA=5.44,STAT.D=16.5,ExtBa=10.08
25/09/2020,02:42:22,TEMP=29.4,BA=5.36,STAT.D=17.5,ExtBa=10.10
25/09/2020,02:45:22,TEMP=29.6,BA=5.36,STAT.D=17.5,ExtBa=10.11
25/09/2020,02:48:22,TEMP=29.6,BA=5.36,STAT.D=17.5,ExtBa=10.09
25/09/2020,02:51:22,TEMP=29.7,BA=5.32,STAT.D=17.5,ExtBa=10.11
25/09/2020,02:53:26,TEMP=29.9,BA=5.32,STAT.D=16.5,ExtBa=10.09
25/09/2020,02:57:22,TEMP=29.9,BA=5.32,STAT.D=17.5,ExtBa=10.09
25/09/2020,03:00:22,TEMP=30.1,BA=5.44,STAT.D=17.5,ExtBa=10.10
25/09/2020,03:03:22,TEMP=30.3,BA=5.44,STAT.D=17.5,ExtBa=10.10
25/09/2020,03:06:22,TEMP=30.3,BA=5.44,STAT.D=17.5,ExtBa=10.10
25/09/2020,03:08:29,TEMP=30.6,BA=5.44,STAT.F,ExtBa=10.08
25/09/2020,03:24:41,TEMP=30.0,BA=5.20,STAT.D=17.5,ExtBa=10.02
25/09/2020,03:27:22,TEMP=29.7,BA=5.20,STAT.D=17.5,ExtBa=10.04
25/09/2020,03:30:22,TEMP=29.7,BA=5.32,STAT.D=17.5,ExtBa=10.05
25/09/2020,03:33:22,TEMP=29.6,BA=5.32,STAT.D=17.5,ExtBa=10.06
25/09/2020,03:36:22,TEMP=29.4,BA=5.32,STAT.D=17.5,ExtBa=10.05
25/09/2020,03:38:15,TEMP=29.5,BA=5.32,STAT.D=17.5,ExtBa=10.05
25/09/2020,03:42:22,TEMP=29.4,BA=5.28,STAT.D=17.5,ExtBa=10.09
25/09/2020,03:45:22,TEMP=29.8,BA=5.28,STAT.D=17.5,ExtBa=10.04
25/09/2020,03:48:22,TEMP=30.1,BA=5.28,STAT.D=17.5,ExtBa=10.06
25/09/2020,03:51:22,TEMP=30.2,BA=5.28,STAT.D=17.5,ExtBa=10.07
25/09/2020,03:53:15,TEMP=30.5,BA=5.28,STAT.D=17.5,ExtBa=10.06
25/09/2020,03:57:22,TEMP=30.7,BA=5.28,STAT.D=17.5,ExtBa=10.07
25/09/2020,04:00:22,TEMP=31.0,BA=5.40,STAT.D=17.5,ExtBa=10.07
25/09/2020,04:03:22,TEMP=31.2,BA=5.40,STAT.D=17.5,ExtBa=10.07
25/09/2020,04:06:22,TEMP=31.1,BA=5.40,STAT.D=17.5,ExtBa=10.08
25/09/2020,04:08:17,TEMP=31.2,BA=5.40,STAT.F,ExtBa=10.05
25/09/2020,04:22:25,TEMP=30.1,BA=5.20,STAT.D=18.0,ExtBa=10.12
25/09/2020,04:27:22,TEMP=30.0,BA=5.20,STAT.D=17.5,ExtBa=10.09
25/09/2020,04:30:22,TEMP=30.0,BA=5.40,STAT.D=17.5,ExtBa=10.08
25/09/2020,04:36:45,TEMP=30.1,BA=5.40,STAT.D=17.5,ExtBa=10.09
25/09/2020,04:39:22,TEMP=30.2,BA=5.40,STAT.D=17.5,ExtBa=10.05
25/09/2020,04:51:22,TEMP=30.5,BA=5.40,STAT.D=17.5,ExtBa=10.11
25/09/2020,04:53:15,TEMP=30.9,BA=5.40,STAT.D=17.5,ExtBa=10.07
25/09/2020,04:57:22,TEMP=30.8,BA=5.40,STAT.D=17.5,ExtBa=10.08
25/09/2020,05:00:22,TEMP=31.0,BA=5.40,STAT.D=17.5,ExtBa=10.08
25/09/2020,05:03:22,TEMP=31.2,BA=5.40,STAT.D=17.5,ExtBa=10.08
25/09/2020,05:06:22,TEMP=31.4,BA=5.40,STAT.D=17.5,ExtBa=10.07
25/09/2020,05:08:22,TEMP=31.6,BA=5.40,STAT.F,ExtBa=10.04
25/09/2020,05:22:31,TEMP=31.7,BA=5.16,STAT.D=17.5,ExtBa=9.99
25/09/2020,05:27:22,TEMP=31.7,BA=5.16,STAT.D=17.5,ExtBa=10.07
25/09/2020,05:30:22,TEMP=32.0,BA=5.32,STAT.D=17.5,ExtBa=10.06
25/09/2020,05:33:22,TEMP=32.0,BA=5.32,STAT.D=17.5,ExtBa=10.07
25/09/2020,05:36:22,TEMP=31.8,BA=5.32,STAT.D=17.5,ExtBa=10.08
25/09/2020,05:38:18,TEMP=31.8,BA=5.32,STAT.D=17.5,ExtBa=10.04
25/09/2020,05:42:22,TEMP=31.3,BA=5.24,STAT.D=18.0,ExtBa=10.09
25/09/2020,05:45:22,TEMP=31.3,BA=5.24,STAT.D=18.0,ExtBa=10.08
25/09/2020,05:48:22,TEMP=31.5,BA=5.24,STAT.D=17.5,ExtBa=10.08
25/09/2020,05:51:22,TEMP=31.5,BA=5.24,STAT.D=17.5,ExtBa=10.07
25/09/2020,05:53:15,TEMP=31.7,BA=5.24,STAT.D=17.5,ExtBa=10.03
25/09/2020,05:57:22,TEMP=31.5,BA=5.24,STAT.D=17.5,ExtBa=10.07
25/09/2020,06:00:22,TEMP=31.6,BA=5.40,STAT.D=17.5,ExtBa=10.06
25/09/2020,06:03:22,TEMP=31.5,BA=5.40,STAT.D=17.5,ExtBa=10.06
25/09/2020,06:06:22,TEMP=31.3,BA=5.40,STAT.D=17.5,ExtBa=10.05
25/09/2020,06:08:25,TEMP=31.5,BA=5.40,STAT.F,ExtBa=10.02
25/09/2020,06:23:21,TEMP=31.6,BA=5.12,STAT.D=17.5,ExtBa=9.96
25/09/2020,06:27:21,TEMP=31.4,BA=5.12,STAT.D=17.5,ExtBa=10.04
25/09/2020,06:30:21,TEMP=31.4,BA=5.28,STAT.D=17.5,ExtBa=10.03
25/09/2020,06:33:21,TEMP=31.3,BA=5.28,STAT.D=17.5,ExtBa=10.04
25/09/2020,06:36:21,TEMP=31.2,BA=5.28,STAT.D=17.5,ExtBa=10.04
25/09/2020,06:38:17,TEMP=31.3,BA=5.28,STAT.D=17.5,ExtBa=10.02
25/09/2020,06:42:21,TEMP=31.1,BA=5.24,STAT.D=18.0,ExtBa=10.07
25/09/2020,06:45:21,TEMP=31.2,BA=5.24,STAT.D=17.5,ExtBa=10.07
25/09/2020,06:48:21,TEMP=31.2,BA=5.24,STAT.D=17.5,ExtBa=10.06
25/09/2020,06:51:21,TEMP=31.0,BA=5.12,STAT.D=17.5,ExtBa=10.05
25/09/2020,06:53:21,TEMP=30.9,BA=5.12,STAT.D=17.5,ExtBa=10.01
25/09/2020,07:06:21,TEMP=29.8,BA=5.36,STAT.D=18.0,ExtBa=10.11
25/09/2020,07:08:19,TEMP=30.0,BA=5.36,STAT.F,ExtBa=10.05
25/09/2020,07:22:45,TEMP=29.8,BA=5.12,STAT.B=17.5,ExtBa=10.04
25/09/2020,07:33:21,TEMP=29.6,BA=5.12,STAT.D=17.5,ExtBa=10.06
25/09/2020,07:36:21,TEMP=29.4,BA=5.12,STAT.D=17.5,ExtBa=10.06
25/09/2020,07:38:03,TEMP=29.5,BA=5.12,STAT.A=17.5,ExtBa=10.04
25/09/2020,07:42:21,TEMP=29.1,BA=5.24,STAT.D=17.5,ExtBa=10.05
25/09/2020,07:45:21,TEMP=29.1,BA=5.24,STAT.D=17.5,ExtBa=10.05
25/09/2020,07:48:21,TEMP=29.2,BA=5.24,STAT.D=17.5,ExtBa=10.06
25/09/2020,07:51:21,TEMP=29.1,BA=5.20,STAT.D=17.5,ExtBa=10.06
25/09/2020,07:53:20,TEMP=29.3,BA=5.20,STAT.A=17.5,ExtBa=10.02
25/09/2020,07:57:21,TEMP=29.1,BA=5.20,STAT.D=17.5,ExtBa=10.07
25/09/2020,08:00:21,TEMP=29.2,BA=5.28,STAT.D=17.5,ExtBa=10.03
25/09/2020,08:02:51,TEMP=29.2,BA=5.28,STAT.A=17.5,ExtBa=10.02
25/09/2020,08:06:21,TEMP=29.0,BA=5.28,STAT.D=17.5,ExtBa=10.06
25/09/2020,08:09:21,TEMP=29.0,BA=5.28,STAT.D=17.5,ExtBa=10.06
25/09/2020,08:12:19,TEMP=28.8,BA=5.12,STAT.A=17.5,ExtBa=10.06
25/09/2020,08:15:21,TEMP=28.7,BA=5.12,STAT.D=17.5,ExtBa=10.05
25/09/2020,08:18:21,TEMP=28.5,BA=5.12,STAT.D=17.5,ExtBa=10.04
25/09/2020,08:20:21,TEMP=28.6,BA=5.16,STAT.C=17.5,ExtBa=10.01
25/09/2020,08:35:15,TEMP=27.8,BA=5.12,STAT.A=17.5,ExtBa=10.08
25/09/2020,08:37:10,TEMP=27.8,BA=5.12,STAT.A=17.5,ExtBa=10.06
25/09/2020,08:39:05,TEMP=27.7,BA=5.12,STAT.A=17.5,ExtBa=10.06
25/09/2020,08:42:20,TEMP=27.3,BA=5.08,STAT.D=17.5,ExtBa=10.07
25/09/2020,08:44:18,TEMP=27.4,BA=5.08,STAT.A=17.5,ExtBa=10.05
25/09/2020,08:47:28,TEMP=27.0,BA=5.08,STAT.B=17.5,ExtBa=10.07
25/09/2020,08:56:44,TEMP=26.5,BA=5.08,STAT.A=17.5,ExtBa=10.08
25/09/2020,09:00:20,TEMP=26.2,BA=5.24,STAT.D=17.5,ExtBa=10.08
25/09/2020,09:03:11,TEMP=26.2,BA=5.24,STAT.A=17.5,ExtBa=10.07
25/09/2020,09:06:20,TEMP=26.0,BA=5.24,STAT.D=17.5,ExtBa=10.07
25/09/2020,09:08:48,TEMP=26.0,BA=5.24,STAT.A=17.5,ExtBa=10.06
25/09/2020,09:13:29,TEMP=25.5,BA=5.08,STAT.A=17.5,ExtBa=10.08
25/09/2020,09:17:24,TEMP=25.3,BA=5.08,STAT.A=17.5,ExtBa=10.10
25/09/2020,09:20:46,TEMP=25.2,BA=5.28,STAT.A=17.5,ExtBa=10.11
25/09/2020,22:53:43,TEMP=16.3,BA=5.56,STAT.A=16.5,ExtBa=12.20
25/09/2020,22:57:05,TEMP=16.6,BA=5.56,STAT.A=16.0,ExtBa=12.15
25/09/2020,23:00:20,TEMP=16.8,BA=5.52,STAT.D=16.0,ExtBa=12.13
25/09/2020,23:02:15,TEMP=17.1,BA=5.52,STAT.A=16.0,ExtBa=12.11
25/09/2020,23:05:42,TEMP=17.0,BA=5.52,STAT.A=16.0,ExtBa=12.11
25/09/2020,23:09:20,TEMP=17.1,BA=5.52,STAT.D=16.0,ExtBa=12.10
25/09/2020,23:11:20,TEMP=17.4,BA=5.32,STAT.A=16.0,ExtBa=12.08
25/09/2020,23:15:20,TEMP=17.4,BA=5.32,STAT.D=16.0,ExtBa=12.09
25/09/2020,23:18:18,TEMP=17.7,BA=5.32,STAT.A=16.0,ExtBa=12.08
25/09/2020,23:21:20,TEMP=17.9,BA=5.28,STAT.D=16.0,ExtBa=12.07
25/09/2020,23:24:20,TEMP=18.1,BA=5.28,STAT.D=16.0,ExtBa=12.07
25/09/2020,23:27:05,TEMP=18.3,BA=5.28,STAT.B=16.0,ExtBa=12.06
25/09/2020,23:36:05,TEMP=18.9,BA=5.28,STAT.A=16.0,ExtBa=12.01
25/09/2020,23:38:07,TEMP=19.2,BA=5.28,STAT.A=16.0,ExtBa=12.00
25/09/2020,23:41:18,TEMP=19.2,BA=5.44,STAT.A=16.0,ExtBa=12.02
25/09/2020,23:45:21,TEMP=19.4,BA=5.44,STAT.D=16.0,ExtBa=12.03
25/09/2020,23:47:22,TEMP=19.8,BA=5.44,STAT.A=16.0,ExtBa=12.01
25/09/2020,23:51:21,TEMP=19.9,BA=5.52,STAT.D=16.0,ExtBa=12.02
25/09/2020,23:54:16,TEMP=20.2,BA=5.52,STAT.C=16.0,ExtBa=12.01